This is the latest recevied weather packets stored in our database for station/object K42C. If no packets are shown the sender has not sent any weather packets the latest 10 day(s).
| Time | Temp. | Humidity | Pressure | Rain* | Wind** | Luminosity | Snow |
|---|---|---|---|---|---|---|---|
| 1777659830 | 7.22° C | 59% | 978.8 hPa | 0 mm | 0 m/s | - | - |
| 1777659433 | 7.22° C | 62% | 978.7 hPa | 0 mm | 0 m/s | - | - |
| 1777659032 | 7.22° C | 61% | 978.7 hPa | 0 mm | 0 m/s | - | - |
| 1777658635 | 6.67° C | 61% | 978.6 hPa | 0 mm | 0 m/s | - | - |
| 1777658234 | 6.67° C | 61% | 978.6 hPa | 0 mm | 0 m/s | - | - |
| 1777657436 | 6.67° C | 63% | 978.7 hPa | 0 mm | 0 m/s | - | - |
| 1777657039 | 6.67° C | 63% | 978.7 hPa | 0 mm | 0 m/s | - | - |
| 1777656638 | 6.67° C | 63% | 978.7 hPa | 0 mm | 0 m/s | - | - |
| 1777656241 | 6.67° C | 62% | 978.8 hPa | 0 mm | 0 m/s | - | - |
| 1777655840 | 6.11° C | 66% | 978.9 hPa | 0 mm | 0 m/s | - | - |
| 1777655443 | 6.11° C | 67% | 978.9 hPa | 0 mm | 0 m/s | - | - |
| 1777655042 | 6.11° C | 71% | 978.9 hPa | 0 mm | 0 m/s | - | - |
| 1777654645 | 6.11° C | 67% | 978.9 hPa | 0 mm | 0 m/s | - | - |
| 1777654244 | 6.11° C | 69% | 979 hPa | 0 mm | 0 m/s | - | - |
| 1777653847 | 6.11° C | 72% | 979.1 hPa | 0 mm | 0 m/s | - | - |
| 1777653446 | 5.56° C | 70% | 979.2 hPa | 0 mm | 0 m/s | - | - |
| 1777653049 | 5.56° C | 72% | 979.2 hPa | 0 mm | 0 m/s | - | - |
| 1777652648 | 5.56° C | 71% | 979.3 hPa | 0 mm | 0 m/s | - | - |
| 1777652251 | 5.56° C | 70% | 979.2 hPa | 0 mm | 0 m/s | - | - |
| 1777651850 | 5.56° C | 71% | 979.4 hPa | 0 mm | 0 m/s | - | - |
| 1777651453 | 5.56° C | 72% | 979.5 hPa | 0 mm | 0 m/s | - | - |
| 1777651052 | 5.56° C | 73% | 979.5 hPa | 0 mm | 0 m/s | - | - |
| 1777650655 | 5° C | 75% | 979.4 hPa | 0 mm | 0 m/s | - | - |
| 1777650254 | 5° C | 76% | 979.5 hPa | 0 mm | 0 m/s | - | - |
| 1777649857 | 5° C | 75% | 979.6 hPa | 0 mm | 0 m/s | - | - |
* Rain latest hour (hover to see other rain measurements)
** Current wind speed in m/s (hover to see current wind gust speed)